Back to catalog

SMDC ONE 1.2

AliveMilitaryVLEO
NORAD 38759·PAYLOAD·🇺🇸 United States

Launched Sep 13, 2012 from Vandenberg Space Force Base

Loading…

Next Passes (next 24 hours)

TLE

FreshSource: Space-Track

Epoch: Sep 14, 2026, 14:02 UTC

1 38759U 12048B   26257.58472429  .00005299  00000-0  21960-3 0  9996
2 38759  64.6556 245.4761 0078110 145.6671 214.9540 15.22289492129755

Track SMDC ONE 1.2 in real time with AllMySat

Download on the App Store